7 * 24
多渠道服务支持
NAVSTAR 53(USA 175)是美国于2003年12月21日发射的GPS导航卫星,隶属于美国全球定位系统(GPS)。该卫星运行于约20200公里高度的中地球轨道(MEO),轨道周期约12小时,属于GPS卫星星座的在轨工作卫星,用于为全球军民用户提供高精度定位、导航与授时服务,增强GPS系统覆盖能力与定位可靠性,支撑全天候不间断导航服务。
美国
(US)
| 数据来源 | 国际轨道数据 |
| 星历时间: | 2026-06-23T02:10:23+0800 1天前 查看轨道信息 |
| 半长轴: | 27280.124km |
| 偏心率: | 0.0001662 |
| 轨道倾角: | 55.030° |
| 近地点辐角 | 342.598° |
| 升交点赤经 | 23.061° |
| 平近点角 | 17.440° |
| 近地点: | 20897.453km |
| 远地点: | 20906.521km |
| 周期: | 747.359分钟 |
| 每日圈数: | 1.926785 |